ブロートン彗星

C/2006 OF2 ( Broughton )

English version
Home page
Updated on March 16, 2010

---------------------------------------------------------------------

・ プロフィール

発見日 2006年7月17日
発見光度 18.2等
発見者 J. Broughton (Reedy Creek)

・ 写真集

・ 軌道要素

The following orbital elements are taken from MPC 62270:

Epoch 2008 Sept. 11.0 TT = JDT 2454720.5
T 2008 Sept. 15.6827 TT                                 MPC
q   2.431404             (2000.0)            P               Q
z  -0.000352       Peri.   95.6130      +0.4967634      -0.8014766
 +/-0.000001       Node   318.5078      +0.4517968      +0.5663745
e   1.000857       Incl.   30.1698      +0.7410167      +0.1919769
From 1410 observations 2006 June 23-2008 Jan. 28, mean residual 0".5.

・ 星図

・ 光度変化

        m1 = 5.0 + 5 logΔ + 10.0 log r(t - 50)

---------------------------------------------------------------------

軌道要素はMPCのEphemerides and Orbital Elementsに掲載されたものです。
星図は StellaNavigator Ver.2.0 for Windows (アストロアーツ 編著 / アスキー出版局刊) で作成したものです。
光度グラフはComet for Windowsで作成したものです。

---------------------------------------------------------------------

Copyright(C) Seiichi Yoshida (comet@aerith.net). All rights reserved.